Time,TemperatureF,DewpointF,PressureIn,WindDirection,WindDirectionDegrees,WindSpeedMPH,WindSpeedGustMPH,Humidity,HourlyPrecipIn,Conditions,Clouds,dailyrainin,SolarRadiationWatts/m^2,SoftwareType,DateUTC
2013-04-08 00:12:00,40.0,39.0,-100.00,SW,233,2.0,9.0,95,-99.99,,,0.03,0.000000,,2013-04-08 07:12:00,
2013-04-08 02:12:00,43.0,38.0,-100.00,WNW,294,3.0,9.0,82,-99.99,,,0.02,0.000000,,2013-04-08 09:12:00,
2013-04-08 03:13:00,43.0,37.0,-100.00,West,270,6.0,17.0,78,-99.99,,,0.02,0.000000,,2013-04-08 10:13:00,
2013-04-08 04:12:00,43.0,35.0,-100.00,WNW,286,5.0,13.0,73,-99.99,,,0.01,0.000000,,2013-04-08 11:12:00,
2013-04-08 05:12:00,43.0,36.0,-100.00,West,279,5.0,15.0,75,-99.99,,,0.01,0.000000,,2013-04-08 12:12:00,
2013-04-08 06:12:00,42.0,35.0,-100.00,WNW,284,4.0,10.0,74,-99.99,,,0.01,0.000000,,2013-04-08 13:12:00,
2013-04-08 07:12:00,43.0,36.0,-100.00,NW,305,4.0,11.0,75,-99.99,,,0.01,0.000000,,2013-04-08 14:12:00,
2013-04-08 08:12:00,44.0,35.0,-100.00,WNW,293,2.0,7.0,70,-99.99,,,0.01,45.439999,,2013-04-08 15:12:00,
2013-04-08 09:13:00,44.0,36.0,-100.00,WNW,303,6.0,16.0,75,-99.99,,,0.01,98.790001,,2013-04-08 16:13:00,
2013-04-08 10:12:00,46.0,38.0,-100.00,WNW,293,5.0,11.0,73,-99.99,,,0.01,309.029999,,2013-04-08 17:12:00,
2013-04-08 12:12:00,50.0,38.0,-100.00,NW,304,6.0,16.0,65,-99.99,,,0.01,832.140015,,2013-04-08 19:12:00,
2013-04-08 13:12:00,51.0,38.0,-100.00,NW,304,6.0,13.0,60,-99.99,,,0.01,864.679993,,2013-04-08 20:12:00,
2013-04-08 14:12:00,52.0,39.0,-100.00,WNW,301,6.0,15.0,61,-99.99,,,0.01,873.969971,,2013-04-08 21:12:00,
2013-04-08 15:13:00,52.0,39.0,-100.00,WNW,300,7.0,18.0,60,-99.99,,,0.01,724.750000,,2013-04-08 22:13:00,
2013-04-08 16:12:00,54.0,39.0,-100.00,WNW,302,8.0,21.0,57,-99.99,,,0.01,806.570007,,2013-04-08 23:12:00,
2013-04-08 18:12:00,54.0,40.0,-100.00,NW,304,5.0,20.0,60,-99.99,,,0.00,443.029999,,2013-04-09 01:12:00,
2013-04-08 19:12:00,53.0,40.0,-100.00,WNW,294,5.0,14.0,61,-99.99,,,0.00,244.059998,,2013-04-09 02:12:00,
2013-04-08 20:12:00,50.0,39.0,-100.00,WNW,290,6.0,15.0,65,-99.99,,,0.00,16.850000,,2013-04-09 03:12:00,
2013-04-08 21:13:00,49.0,39.0,-100.00,WNW,287,3.0,8.0,68,-99.99,,,0.00,0.120000,,2013-04-09 04:13:00,
2013-04-08 22:12:00,47.0,38.0,-100.00,WSW,245,2.0,5.0,71,-99.99,,,0.00,0.000000,,2013-04-09 05:12:00,
2013-04-08 23:12:00,47.0,40.0,-100.00,West,279,4.0,10.0,75,-99.99,,,0.00,0.000000,,2013-04-09 06:12:00,